TimeMDT,TemperatureF,Dew PointF,Humidity,Sea Level PressureIn,VisibilityMPH,Wind Direction,Wind SpeedMPH,Gust SpeedMPH,PrecipitationIn,Events,Conditions,WindDirDegrees,DateUTC
12:53 AM,51.1,36.0,56,29.82,10.0,ESE,8.1,-,N/A,,Clear,110,2013-05-22 06:53:00
1:53 AM,50.0,36.0,59,29.82,10.0,ESE,5.8,-,N/A,,Clear,110,2013-05-22 07:53:00
2:53 AM,48.0,37.0,66,29.83,10.0,NNE,3.5,-,N/A,,Clear,20,2013-05-22 08:53:00
3:53 AM,44.1,36.0,73,29.84,10.0,Calm,Calm,-,N/A,,Clear,0,2013-05-22 09:53:00
4:53 AM,42.1,36.0,79,29.85,10.0,Calm,Calm,-,N/A,,Clear,0,2013-05-22 10:53:00
5:53 AM,41.0,36.0,82,29.85,10.0,Calm,Calm,-,N/A,,Clear,0,2013-05-22 11:53:00
6:53 AM,46.9,39.0,74,29.84,10.0,Calm,Calm,-,N/A,,Clear,0,2013-05-22 12:53:00
7:53 AM,50.0,39.9,68,29.85,10.0,North,3.5,-,N/A,,Clear,10,2013-05-22 13:53:00
8:53 AM,53.1,41.0,64,29.86,10.0,Calm,Calm,-,N/A,,Clear,0,2013-05-22 14:53:00
9:53 AM,57.9,39.9,51,29.83,10.0,North,3.5,-,N/A,,Clear,10,2013-05-22 15:53:00
10:53 AM,61.0,39.0,44,29.80,10.0,Calm,Calm,-,N/A,,Clear,0,2013-05-22 16:53:00
11:53 AM,64.0,39.9,41,29.78,10.0,NE,4.6,-,N/A,,Clear,40,2013-05-22 17:53:00
12:53 PM,69.1,39.0,33,29.76,10.0,North,8.1,-,N/A,,Clear,350,2013-05-22 18:53:00
1:53 PM,73.0,37.9,28,29.72,10.0,NE,6.9,-,N/A,,Clear,40,2013-05-22 19:53:00
2:53 PM,73.0,39.0,29,29.70,10.0,Calm,Calm,-,N/A,,Clear,0,2013-05-22 20:53:00
3:41 PM,75.2,37.4,25,29.76,10.0,SE,19.6,-,N/A,,Clear,130,2013-05-22 21:41:00
3:53 PM,75.9,39.0,26,29.68,10.0,ESE,19.6,28.8,N/A,,Clear,110,2013-05-22 21:53:00
4:53 PM,75.0,36.0,24,29.67,10.0,ESE,25.3,31.1,N/A,,Clear,120,2013-05-22 22:53:00
5:53 PM,70.0,35.1,28,29.68,10.0,ESE,28.8,38.0,N/A,,Clear,120,2013-05-22 23:53:00
6:53 PM,68.0,37.9,33,29.66,10.0,ESE,21.9,34.5,N/A,,Clear,110,2013-05-23 00:53:00
7:53 PM,66.0,39.0,37,29.68,10.0,ESE,33.4,42.6,N/A,,Partly Cloudy,120,2013-05-23 01:53:00
8:40 PM,64.4,39.2,40,29.76,10.0,ESE,25.3,39.1,N/A,Thunderstorm,Partly Cloudy,120,2013-05-23 02:40:00
8:53 PM,64.9,39.9,40,29.69,10.0,ESE,28.8,40.3,N/A,,Clear,110,2013-05-23 02:53:00
9:53 PM,64.0,39.9,41,29.73,10.0,East,20.7,33.4,N/A,,Scattered Clouds,100,2013-05-23 03:53:00
10:53 PM,61.0,44.1,54,29.75,10.0,NE,11.5,-,N/A,,Clear,50,2013-05-23 04:53:00
11:53 PM,57.9,45.0,62,29.78,10.0,NE,6.9,-,N/A,,Partly Cloudy,40,2013-05-23 05:53:00